Regional Weather Roundup
Issued by NWS Green Bay, WI

Home | Current Version | Previous Version | Text Only | Print | Product List | Glossary On
Versions: 1 2 3 4 5 6 7 8 9 10 11 12 13 14 15 16 17 18 19 20 21 22 23 24 25 26 27 28 29 30 31 32 33 34 35 36 37 38 39 40 41 42 43 44 45 46 47 48 49 50
000
ASUS43 KGRB 031100
RWRGRB

NORTH-CENTRAL AND NORTHEAST WISCONSIN REGIONAL WEATHER ROUNDUP
NATIONAL WEATHER SERVICE GREEN BAY WI
600 AM CDT TUE MAY 03 2016

WIZ005-009-010>012-018-019-031200-
NORTH CENTRAL WISCONSIN

CITY           SKY/WX    TMP DP  RH WIND       PRES   REMARKS
IRONWOOD         N/A     52  32  46 SW8       29.80F
MANITOWISH WTR NOT AVBL
ARBOR VITAE    NOT AVBL
EAGLE RIVER    NOT AVBL
LAND O LAKES   NOT AVBL
RHINELANDER    CLEAR     35  30  82 W7        29.88F
PHILLIPS       NOT AVBL
ANTIGO         NOT AVBL
TOMAHAWK       NOT AVBL
MERRILL        NOT AVBL
$$

WIZ013-073-031200-
NORTHEAST WISCONSIN

CITY           SKY/WX    TMP DP  RH WIND       PRES   REMARKS
IRON MOUNTAIN  CLEAR     32  28  85 CALM      29.83F
MARINETTE      CLEAR     45  34  65 W6        29.86F
$$

WIZ017-030-035>037-045-031200-
CENTRAL WISCONSIN

CITY           SKY/WX    TMP DP  RH WIND       PRES   REMARKS
MEDFORD        NOT AVBL
WAUSAU         CLEAR     47  35  63 NW6       29.89F
MOSINEE        CLEAR     43  34  70 W6        29.92S
MARSHFIELD     CLEAR     43  34  70 W7        29.91F
WISC RAPIDS    CLEAR     35  32  88 CALM      29.93F
STEVENS POINT  NOT AVBL
WAUPACA        NOT AVBL
SHAWANO        NOT AVBL
CLINTONVILLE   NOT AVBL
WAUTOMA        CLEAR     34  31  88 CALM      29.93F
$$

WIZ038-039-048-051-031200-
FOX VALLEY

CITY           SKY/WX    TMP DP  RH WIND       PRES   REMARKS
NWS GREEN BAY  CLEAR     44  37  76 SW3       29.90F
APPLETON       PTCLDY    43  34  70 W8        29.89F
OSHKOSH        CLEAR     45  34  65 W6        29.91F
FOND DU LAC    CLEAR     44  35  70 SW7       29.93F
$$

WIZ022-050-052-031200-
EAST CENTRAL WISCONSIN

CITY           SKY/WX    TMP DP  RH WIND       PRES   REMARKS
EPHRAIM        NOT AVBL
STURGEON BAY   CLEAR     45  34  65 SW7       29.90F
MANITOWOC      NOT AVBL
SHEBOYGAN      CLEAR     40  31  70 SW7       29.92F
$$

LMZ563-521-522-541>543-031200-
LAKESHORE

STATION/POSITION TIME  TEMP    WIND        PRES    VSBY  WAVE
                       AIR SEA DIR/SP/G                  HT/PER
                 (UTC) (F)     (DEG/KT/KT) (MB)    (MI)  (FT/S)
SHEBOYGAN LKSHOR 1000   47     240/ 10/ 11 1013.9F
KEWAUNEE LKSHORE 1000   47     270/  6/  9 1011.9F
ALGOMA MARINA    1000             CALM       N/A
NORTHPORT PIER   1000   48     210/  4/  9 1011.5F
N MID LAKE BUOY  0950   41 38  180/  8/ 10 1012.1F         0
CHAMBERS ISLAND  1000   47     190/  6/ 11 1011.9F
MENOMINEE LKSHOR 1000   48     220/  7/  9 1010.6F
$$




USA.gov is the U.S. government's official web portal to all federal, state and local government web resources and services.